ACA1109 CYXE-CYVR

Flight info

Callsign ACA1109
Flight time 1h 36m
Altitude 36000
Route OVATA DCT BORIX DCT SPRAE DCT BOOTH CANUC6
Aircraft A320/M-SDE3FGHIRWY/LB1

Departure

Time 2026-05-04 20:01
Airport Saskatoon John G. Diefenbaker International Airport (CYXE)

Arrival

Time 2026-05-04 21:37
Airport Vancouver International Airport (CYVR)
Time Latitude Longitude Altitude Speed Heading
2026-05-04 19:40 52.17022 -106.69192 1650 ft 0 kts 157°
2026-05-04 19:54 52.17034 -106.69200 1650 ft 4 kts 157°
2026-05-04 19:54 52.17059 -106.69218 1650 ft 4 kts 156°
2026-05-04 19:55 52.17082 -106.69237 1650 ft 4 kts 140°
2026-05-04 19:55 52.17098 -106.69269 1650 ft 4 kts 97°
2026-05-04 19:55 52.17097 -106.69296 1650 ft 1 kts 69°
2026-05-04 19:55 52.17096 -106.69300 1649 ft 0 kts 69°
2026-05-04 19:57 52.17101 -106.69277 1650 ft 8 kts 69°
2026-05-04 19:57 52.17123 -106.69187 1650 ft 8 kts 68°
2026-05-04 19:58 52.17157 -106.69111 1650 ft 11 kts 40°
2026-05-04 19:58 52.17190 -106.68988 1649 ft 12 kts 95°
2026-05-04 19:58 52.17175 -106.68861 1650 ft 11 kts 101°
2026-05-04 19:58 52.17154 -106.68689 1650 ft 17 kts 101°
2026-05-04 19:59 52.17132 -106.68512 1650 ft 15 kts 101°
2026-05-04 19:59 52.17115 -106.68352 1650 ft 13 kts 92°
2026-05-04 19:59 52.17175 -106.68274 1650 ft 12 kts
2026-05-04 19:59 52.17260 -106.68248 1650 ft 13 kts 11°
2026-05-04 20:00 52.17349 -106.68220 1649 ft 14 kts 11°
2026-05-04 20:00 52.17428 -106.68269 1649 ft 14 kts 292°
2026-05-04 20:00 52.17448 -106.68447 1649 ft 27 kts 280°
2026-05-04 20:00 52.17536 -106.69170 1651 ft 99 kts 281°
2026-05-04 20:01 52.17706 -106.70563 1746 ft 141 kts 285°
2026-05-04 20:01 52.17879 -106.72069 2478 ft 135 kts 287°
2026-05-04 20:01 52.18080 -106.73624 3013 ft 145 kts 289°
2026-05-04 20:01 52.18318 -106.75258 3505 ft 152 kts 291°
2026-05-04 20:02 52.18583 -106.77026 3722 ft 172 kts 288°
2026-05-04 20:02 52.18743 -106.79205 3686 ft 215 kts 276°
2026-05-04 20:02 52.18647 -106.81810 3964 ft 244 kts 269°
2026-05-04 20:02 52.18441 -106.84640 4631 ft 255 kts 268°
2026-05-04 20:03 52.18202 -106.87518 5526 ft 258 kts 267°
2026-05-04 20:03 52.17973 -106.90396 6402 ft 261 kts 268°
2026-05-04 20:03 52.17754 -106.93342 7224 ft 264 kts 268°
2026-05-04 20:03 52.17538 -106.96326 8040 ft 267 kts 268°
2026-05-04 20:04 52.17323 -106.99347 8863 ft 270 kts 269°
2026-05-04 20:04 52.17109 -107.02406 9697 ft 273 kts 269°
2026-05-04 20:04 52.16895 -107.05511 10390 ft 280 kts 269°
2026-05-04 20:04 52.16674 -107.08796 10631 ft 303 kts 269°
2026-05-04 20:05 52.16438 -107.12338 10815 ft 326 kts 268°
2026-05-04 20:05 52.16184 -107.16066 11140 ft 342 kts 268°
2026-05-04 20:05 52.15914 -107.19945 11768 ft 347 kts 268°
2026-05-04 20:05 52.15639 -107.23873 12457 ft 352 kts 268°
2026-05-04 20:06 52.15355 -107.27852 13138 ft 356 kts 268°
2026-05-04 20:06 52.15062 -107.31875 13807 ft 360 kts 268°
2026-05-04 20:06 52.14767 -107.35939 14402 ft 363 kts 268°
2026-05-04 20:06 52.14467 -107.40043 15009 ft 366 kts 268°
2026-05-04 20:07 52.14164 -107.44175 15615 ft 369 kts 268°
2026-05-04 20:07 52.13863 -107.48343 16211 ft 372 kts 268°
2026-05-04 20:07 52.13562 -107.52543 16815 ft 375 kts 269°
2026-05-04 20:07 52.13260 -107.56714 17405 ft 378 kts 268°
2026-05-04 20:08 52.12951 -107.60980 18005 ft 381 kts 268°
2026-05-04 20:08 52.12635 -107.65279 18556 ft 384 kts 268°
2026-05-04 20:08 52.12314 -107.69609 19075 ft 387 kts 268°
2026-05-04 20:08 52.11988 -107.73974 19585 ft 390 kts 268°
2026-05-04 20:09 52.11658 -107.78361 20082 ft 393 kts 268°
2026-05-04 20:09 52.11321 -107.82789 20565 ft 395 kts 267°
2026-05-04 20:09 52.10979 -107.87243 21036 ft 398 kts 267°
2026-05-04 20:09 52.10637 -107.91669 21483 ft 401 kts 267°
2026-05-04 20:10 52.10290 -107.96188 21919 ft 404 kts 266°
2026-05-04 20:10 52.09940 -108.00735 22355 ft 407 kts 266°
2026-05-04 20:10 52.09554 -108.05317 22780 ft 410 kts 265°
2026-05-04 20:10 52.09125 -108.09921 23195 ft 413 kts 264°
2026-05-04 20:11 52.08668 -108.14546 23604 ft 416 kts 264°
2026-05-04 20:11 52.08195 -108.19199 23940 ft 418 kts 264°
2026-05-04 20:11 52.07724 -108.23879 24256 ft 421 kts 264°
2026-05-04 20:11 52.07257 -108.28591 24576 ft 423 kts 264°
2026-05-04 20:12 52.06798 -108.33257 24887 ft 425 kts 264°
2026-05-04 20:12 52.06332 -108.38017 25192 ft 428 kts 264°
2026-05-04 20:12 52.05865 -108.42802 25493 ft 430 kts 264°
2026-05-04 20:12 52.05395 -108.47609 25797 ft 432 kts 264°
2026-05-04 20:13 52.04919 -108.52436 26096 ft 434 kts 264°
2026-05-04 20:13 52.04441 -108.57290 26382 ft 436 kts 264°
2026-05-04 20:13 52.03957 -108.62162 26663 ft 438 kts 264°
2026-05-04 20:13 52.03468 -108.67053 26936 ft 440 kts 264°
2026-05-04 20:14 52.02976 -108.71902 27210 ft 442 kts 264°
2026-05-04 20:14 52.02476 -108.76829 27467 ft 443 kts 264°
2026-05-04 20:14 52.01972 -108.81781 27722 ft 445 kts 264°
2026-05-04 20:14 52.01467 -108.86746 27971 ft 447 kts 264°
2026-05-04 20:15 52.00957 -108.91724 28215 ft 448 kts 265°
2026-05-04 20:15 52.00443 -108.96725 28448 ft 450 kts 265°
2026-05-04 20:15 51.99925 -109.01735 28703 ft 450 kts 265°
2026-05-04 20:15 51.99401 -109.06732 29033 ft 449 kts 265°
2026-05-04 20:16 51.98883 -109.11657 29352 ft 448 kts 265°
2026-05-04 20:16 51.98361 -109.16637 29687 ft 447 kts 265°
2026-05-04 20:16 51.97841 -109.21604 30021 ft 446 kts 266°
2026-05-04 20:16 51.97321 -109.26558 30321 ft 445 kts 266°
2026-05-04 20:17 51.96795 -109.31501 30585 ft 445 kts 266°
2026-05-04 20:17 51.96270 -109.36438 30848 ft 444 kts 266°
2026-05-04 20:17 51.95744 -109.41370 31109 ft 443 kts 266°
2026-05-04 20:17 51.95218 -109.46287 31363 ft 443 kts 267°
2026-05-04 20:18 51.94689 -109.51202 31621 ft 442 kts 267°
2026-05-04 20:18 51.94167 -109.56037 31885 ft 442 kts 267°
2026-05-04 20:18 51.93636 -109.60933 32146 ft 441 kts 267°
2026-05-04 20:18 51.93103 -109.65825 32405 ft 440 kts 267°
2026-05-04 20:19 51.92569 -109.70702 32672 ft 440 kts 267°
2026-05-04 20:19 51.92032 -109.75572 32934 ft 439 kts 268°
2026-05-04 20:19 51.91495 -109.80438 33199 ft 438 kts 268°
2026-05-04 20:19 51.90957 -109.85294 33459 ft 438 kts 268°
2026-05-04 20:20 51.90415 -109.90144 33721 ft 437 kts 268°
2026-05-04 20:20 51.89876 -109.94923 33969 ft 437 kts 268°
2026-05-04 20:20 51.89322 -109.99763 34203 ft 437 kts 267°
2026-05-04 20:20 51.88724 -110.04594 34409 ft 438 kts 266°
2026-05-04 20:21 51.88081 -110.09420 34612 ft 439 kts 265°
2026-05-04 20:21 51.87403 -110.14248 34790 ft 440 kts 265°
2026-05-04 20:21 51.86017 -110.23893 35165 ft 440 kts 265°
2026-05-04 20:22 51.85338 -110.28657 35342 ft 440 kts 265°
2026-05-04 20:22 51.84656 -110.33487 35513 ft 441 kts 265°
2026-05-04 20:22 51.83978 -110.38318 35677 ft 441 kts 265°
2026-05-04 20:22 51.83301 -110.43146 35844 ft 441 kts 265°
2026-05-04 20:23 51.82625 -110.47982 36012 ft 441 kts 265°
2026-05-04 20:23 51.81946 -110.52818 36098 ft 442 kts 265°
2026-05-04 20:23 51.80566 -110.62576 36126 ft 449 kts 265°
2026-05-04 20:24 51.79166 -110.72372 36129 ft 451 kts 265°
2026-05-04 20:24 51.77735 -110.82250 36127 ft 452 kts 265°
2026-05-04 20:25 51.76294 -110.92113 36131 ft 451 kts 265°
2026-05-04 20:25 51.74860 -111.01961 36127 ft 451 kts 265°
2026-05-04 20:26 51.73428 -111.11738 36127 ft 451 kts 265°
2026-05-04 20:26 51.71970 -111.21567 36132 ft 451 kts 265°
2026-05-04 20:27 51.70507 -111.31389 36134 ft 450 kts 265°
2026-05-04 20:27 51.69040 -111.41199 36138 ft 450 kts 265°
2026-05-04 20:28 51.67563 -111.50997 36136 ft 450 kts 265°
2026-05-04 20:28 51.66095 -111.60717 36144 ft 450 kts 265°
2026-05-04 20:29 51.64603 -111.70502 36136 ft 450 kts 265°
2026-05-04 20:29 51.63098 -111.80279 36130 ft 450 kts 265°
2026-05-04 20:30 51.61586 -111.90049 36130 ft 450 kts 265°
2026-05-04 20:30 51.60077 -111.99744 36138 ft 450 kts 265°
2026-05-04 20:31 51.58555 -112.09494 36120 ft 449 kts 265°
2026-05-04 20:31 51.57026 -112.19236 36110 ft 449 kts 265°
2026-05-04 20:32 51.55485 -112.28973 36109 ft 450 kts 265°
2026-05-04 20:32 51.53943 -112.38635 36098 ft 449 kts 265°
2026-05-04 20:33 51.52388 -112.48353 36092 ft 449 kts 265°
2026-05-04 20:33 51.50824 -112.58065 36088 ft 449 kts 266°
2026-05-04 20:34 51.49257 -112.67766 36086 ft 449 kts 266°
2026-05-04 20:34 51.47689 -112.77390 36083 ft 449 kts 266°
2026-05-04 20:35 51.46103 -112.87058 36087 ft 448 kts 266°
2026-05-04 20:35 51.44515 -112.96724 36086 ft 448 kts 266°
2026-05-04 20:36 51.42924 -113.06373 36090 ft 448 kts 266°
2026-05-04 20:36 51.41329 -113.15948 36093 ft 448 kts 266°
2026-05-04 20:37 51.39713 -113.25575 36099 ft 447 kts 266°
2026-05-04 20:37 51.38095 -113.35192 36111 ft 447 kts 266°
2026-05-04 20:38 51.36472 -113.44798 36121 ft 447 kts 266°
2026-05-04 20:38 51.34848 -113.54324 36127 ft 447 kts 266°
2026-05-04 20:39 51.34026 -113.59117 36134 ft 447 kts 266°
2026-05-04 20:39 51.32964 -113.65375 36126 ft 446 kts 266°
2026-05-04 20:40 51.31321 -113.74939 36124 ft 446 kts 265°
2026-05-04 20:40 51.29655 -113.84485 36118 ft 446 kts 265°
2026-05-04 20:41 51.27999 -113.93946 36117 ft 445 kts 265°
2026-05-04 20:41 51.26335 -114.03455 36108 ft 445 kts 265°
2026-05-04 20:42 51.24667 -114.12958 36107 ft 445 kts 265°
2026-05-04 20:42 51.22984 -114.22454 36113 ft 445 kts 265°
2026-05-04 20:43 51.21309 -114.31886 36108 ft 445 kts 265°
2026-05-04 20:43 51.19613 -114.41364 36104 ft 445 kts 265°
2026-05-04 20:44 51.17905 -114.50841 36106 ft 445 kts 265°
2026-05-04 20:44 51.16193 -114.60327 36108 ft 445 kts 265°
2026-05-04 20:45 51.14477 -114.69802 36104 ft 446 kts 265°
2026-05-04 20:45 51.12758 -114.79230 36107 ft 447 kts 265°
2026-05-04 20:46 51.11009 -114.88737 36116 ft 448 kts 265°
2026-05-04 20:46 51.09253 -114.98245 36117 ft 448 kts 265°
2026-05-04 20:47 51.07493 -115.07767 36098 ft 449 kts 265°
2026-05-04 20:47 51.05725 -115.17234 36094 ft 450 kts 265°
2026-05-04 20:48 51.03932 -115.26763 36077 ft 450 kts 265°
2026-05-04 20:48 51.02141 -115.36302 36068 ft 451 kts 265°
2026-05-04 20:49 51.00333 -115.45844 36046 ft 451 kts 264°
2026-05-04 20:49 50.98510 -115.55383 36045 ft 452 kts 265°
2026-05-04 20:50 50.96690 -115.64871 36033 ft 453 kts 265°
2026-05-04 20:50 50.94854 -115.74442 36028 ft 454 kts 265°
2026-05-04 20:51 50.93003 -115.84022 36024 ft 455 kts 264°
2026-05-04 20:51 50.91133 -115.93599 36014 ft 455 kts 264°
2026-05-04 20:52 50.89265 -116.03112 36006 ft 456 kts 264°
2026-05-04 20:52 50.87383 -116.12700 35995 ft 457 kts 264°
2026-05-04 20:53 50.85498 -116.22273 35989 ft 455 kts 264°
2026-05-04 20:53 50.83601 -116.31856 35997 ft 457 kts 264°
2026-05-04 20:54 50.81686 -116.41460 35997 ft 458 kts 264°
2026-05-04 20:54 50.79767 -116.51011 36008 ft 460 kts 264°
2026-05-04 20:55 50.77818 -116.60646 36014 ft 460 kts 264°
2026-05-04 20:55 50.75864 -116.70263 36003 ft 460 kts 264°
2026-05-04 20:56 50.73909 -116.79876 36004 ft 461 kts 263°
2026-05-04 20:56 50.71942 -116.89509 36011 ft 461 kts 263°
2026-05-04 20:57 50.69983 -116.99053 36002 ft 461 kts 263°
2026-05-04 20:57 50.68003 -117.08679 36001 ft 461 kts 263°
2026-05-04 20:58 50.66005 -117.18293 36003 ft 461 kts 263°
2026-05-04 20:58 50.64004 -117.27867 35997 ft 460 kts 263°
2026-05-04 20:59 50.62018 -117.37365 35965 ft 460 kts 263°
2026-05-04 20:59 50.60008 -117.46931 35949 ft 460 kts 263°
2026-05-04 21:00 50.57989 -117.56498 35952 ft 461 kts 262°
2026-05-04 21:00 50.55956 -117.66054 35937 ft 460 kts 263°
2026-05-04 21:01 50.53927 -117.75539 35921 ft 461 kts 263°
2026-05-04 21:01 50.51884 -117.85110 35918 ft 461 kts 262°
2026-05-04 21:02 50.49833 -117.94649 35903 ft 461 kts 262°
2026-05-04 21:02 50.47766 -118.04198 35897 ft 462 kts 262°
2026-05-04 21:03 50.45684 -118.13750 35896 ft 463 kts 262°
2026-05-04 21:03 50.43601 -118.23244 35899 ft 464 kts 262°
2026-05-04 21:04 50.41505 -118.32812 35891 ft 464 kts 262°
2026-05-04 21:04 50.39398 -118.42387 35899 ft 466 kts 261°
2026-05-04 21:05 50.37272 -118.51971 35897 ft 466 kts 261°
2026-05-04 21:05 50.35154 -118.61482 35896 ft 465 kts 261°
2026-05-04 21:06 50.33026 -118.71036 35901 ft 465 kts 261°
2026-05-04 21:06 50.30883 -118.80593 35896 ft 466 kts 261°
2026-05-04 21:07 50.29088 -118.88535 35891 ft 466 kts 261°
2026-05-04 21:07 50.26568 -118.99632 35892 ft 466 kts 261°
2026-05-04 21:08 50.24395 -119.09175 35880 ft 466 kts 260°
2026-05-04 21:08 50.22586 -119.17109 35883 ft 467 kts 260°
2026-05-04 21:09 50.20396 -119.26663 35884 ft 468 kts 260°
2026-05-04 21:09 50.17838 -119.37757 35890 ft 467 kts 260°
2026-05-04 21:10 50.15989 -119.45730 35924 ft 466 kts 260°
2026-05-04 21:10 50.13794 -119.55134 35929 ft 464 kts 259°
2026-05-04 21:11 50.11589 -119.64561 35917 ft 462 kts 259°
2026-05-04 21:11 50.09376 -119.73963 35912 ft 462 kts 259°
2026-05-04 21:12 50.07167 -119.83350 35906 ft 462 kts 259°
2026-05-04 21:12 50.04969 -119.92668 35907 ft 462 kts 259°
2026-05-04 21:13 50.02736 -120.02025 35910 ft 461 kts 259°
2026-05-04 21:13 50.00504 -120.11362 35905 ft 461 kts 258°
2026-05-04 21:14 49.98259 -120.20700 35900 ft 462 kts 258°
2026-05-04 21:14 49.96025 -120.29988 35895 ft 462 kts 258°
2026-05-04 21:15 49.93769 -120.39332 35893 ft 462 kts 258°
2026-05-04 21:15 49.91496 -120.48671 35859 ft 463 kts 258°
2026-05-04 21:16 49.90358 -120.53346 35598 ft 463 kts 258°
2026-05-04 21:16 49.89220 -120.58022 35347 ft 464 kts 258°
2026-05-04 21:16 49.88079 -120.62703 35095 ft 465 kts 257°
2026-05-04 21:16 49.86935 -120.67388 34848 ft 465 kts 257°
2026-05-04 21:17 49.85798 -120.72017 34607 ft 466 kts 257°
2026-05-04 21:17 49.84638 -120.76714 34363 ft 467 kts 257°
2026-05-04 21:17 49.83473 -120.81427 33559 ft 471 kts 257°
2026-05-04 21:17 49.82299 -120.86187 32529 ft 474 kts 256°
2026-05-04 21:18 49.81116 -120.90960 31541 ft 476 kts 256°
2026-05-04 21:18 49.79928 -120.95752 30485 ft 479 kts 255°
2026-05-04 21:18 49.78730 -121.00581 29284 ft 482 kts 255°
2026-05-04 21:18 49.77527 -121.05420 28131 ft 482 kts 255°
2026-05-04 21:19 49.76332 -121.10208 26978 ft 483 kts 254°
2026-05-04 21:19 49.75116 -121.15049 26131 ft 479 kts 254°
2026-05-04 21:19 49.73918 -121.19792 25393 ft 470 kts 254°
2026-05-04 21:19 49.72735 -121.24473 24617 ft 466 kts 254°
2026-05-04 21:20 49.71564 -121.29114 23861 ft 462 kts 254°
2026-05-04 21:20 49.70401 -121.33724 23050 ft 459 kts 253°
2026-05-04 21:20 49.69246 -121.38286 22332 ft 453 kts 253°
2026-05-04 21:20 49.68102 -121.42793 21631 ft 448 kts 253°
2026-05-04 21:21 49.66988 -121.47172 20986 ft 441 kts 253°
2026-05-04 21:21 49.65870 -121.51552 20332 ft 437 kts 253°
2026-05-04 21:21 49.64756 -121.55897 19709 ft 434 kts 253°
2026-05-04 21:21 49.63654 -121.60205 19101 ft 430 kts 252°
2026-05-04 21:22 49.62563 -121.64480 18527 ft 426 kts 252°
2026-05-04 21:22 49.61485 -121.68716 17934 ft 424 kts 252°
2026-05-04 21:22 49.60410 -121.72928 17370 ft 419 kts 252°
2026-05-04 21:22 49.59345 -121.77087 16839 ft 414 kts 252°
2026-05-04 21:23 49.58290 -121.81193 16313 ft 410 kts 251°
2026-05-04 21:23 49.57254 -121.85187 15897 ft 404 kts 251°
2026-05-04 21:23 49.56214 -121.89182 15382 ft 400 kts 251°
2026-05-04 21:23 49.55185 -121.93145 14852 ft 397 kts 251°
2026-05-04 21:24 49.54164 -121.97078 14296 ft 394 kts 250°
2026-05-04 21:24 49.53148 -122.00981 13722 ft 393 kts 250°
2026-05-04 21:24 49.52065 -122.04845 13061 ft 393 kts 244°
2026-05-04 21:24 49.50663 -122.08450 12410 ft 391 kts 239°
2026-05-04 21:25 49.49235 -122.11998 11754 ft 389 kts 240°
2026-05-04 21:25 49.47827 -122.15481 11105 ft 388 kts 239°
2026-05-04 21:25 49.46420 -122.18950 10784 ft 378 kts 240°
2026-05-04 21:25 49.45072 -122.22321 10660 ft 362 kts 240°
2026-05-04 21:26 49.43787 -122.25561 10535 ft 347 kts 240°
2026-05-04 21:26 49.42560 -122.28666 10410 ft 333 kts 240°
2026-05-04 21:26 49.41407 -122.31576 10298 ft 321 kts 240°
2026-05-04 21:26 49.40248 -122.34442 10180 ft 311 kts 237°
2026-05-04 21:27 49.38891 -122.36967 10003 ft 304 kts 231°
2026-05-04 21:27 49.37504 -122.39371 9862 ft 300 kts 230°
2026-05-04 21:27 49.36239 -122.41562 9457 ft 301 kts 231°
2026-05-04 21:27 49.34859 -122.43966 9075 ft 300 kts 230°
2026-05-04 21:28 49.33530 -122.46247 8691 ft 299 kts 230°
2026-05-04 21:28 49.32149 -122.48594 8346 ft 295 kts 230°
2026-05-04 21:28 49.30778 -122.50919 7924 ft 293 kts 230°
2026-05-04 21:28 49.29420 -122.53218 7527 ft 292 kts 229°
2026-05-04 21:29 49.28071 -122.55503 7212 ft 288 kts 229°
2026-05-04 21:29 49.26737 -122.57774 6772 ft 288 kts 230°
2026-05-04 21:29 49.25417 -122.60034 6349 ft 287 kts 229°
2026-05-04 21:29 49.24084 -122.62312 5944 ft 288 kts 229°
2026-05-04 21:30 49.22742 -122.64595 5551 ft 289 kts 229°
2026-05-04 21:30 49.21602 -122.66537 5226 ft 288 kts 228°
2026-05-04 21:30 49.20379 -122.68960 4881 ft 287 kts 239°
2026-05-04 21:30 49.19366 -122.71518 4681 ft 273 kts 239°
2026-05-04 21:31 49.17490 -122.76142 4313 ft 239 kts 238°
2026-05-04 21:31 49.16635 -122.78240 4143 ft 228 kts 240°
2026-05-04 21:31 49.16121 -122.80333 3996 ft 226 kts 261°
2026-05-04 21:32 49.16175 -122.82716 3783 ft 227 kts 279°
2026-05-04 21:32 49.16459 -122.85088 3527 ft 226 kts 280°
2026-05-04 21:32 49.16736 -122.87394 3317 ft 214 kts 280°
2026-05-04 21:32 49.16994 -122.89579 3102 ft 205 kts 279°
2026-05-04 21:33 49.17235 -122.91640 3053 ft 186 kts 280°
2026-05-04 21:33 49.17453 -122.93511 2870 ft 172 kts 279°
2026-05-04 21:33 49.17653 -122.95229 2671 ft 162 kts 279°
2026-05-04 21:33 49.17846 -122.96881 2486 ft 151 kts 279°
2026-05-04 21:34 49.18023 -122.98407 2298 ft 146 kts 279°
2026-05-04 21:34 49.18198 -122.99915 2098 ft 143 kts 279°
2026-05-04 21:34 49.18371 -123.01413 1918 ft 142 kts 279°
2026-05-04 21:34 49.18544 -123.02901 1734 ft 142 kts 278°
2026-05-04 21:35 49.18716 -123.04388 1553 ft 142 kts 279°
2026-05-04 21:35 49.18890 -123.05871 1347 ft 141 kts 279°
2026-05-04 21:35 49.19068 -123.07332 1168 ft 139 kts 277°
2026-05-04 21:35 49.19216 -123.08793 1034 ft 139 kts 277°
2026-05-04 21:36 49.19378 -123.10236 815 ft 141 kts 281°
2026-05-04 21:36 49.19569 -123.11692 643 ft 141 kts 278°
2026-05-04 21:36 49.19726 -123.13149 413 ft 138 kts 279°
2026-05-04 21:36 49.19891 -123.14564 251 ft 136 kts 278°
2026-05-04 21:37 49.20052 -123.16006 72 ft 138 kts 279°
2026-05-04 21:37 49.20202 -123.17334 33 ft 106 kts 280°
2026-05-04 21:37 49.20286 -123.18087 36 ft 45 kts 279°
2026-05-04 21:37 49.20295 -123.18502 36 ft 34 kts 252°
2026-05-04 21:38 49.20229 -123.18775 35 ft 24 kts 248°
2026-05-04 21:38 49.20166 -123.19001 36 ft 23 kts 229°
2026-05-04 21:38 49.20013 -123.19063 36 ft 24 kts 191°
2026-05-04 21:38 49.19863 -123.19105 34 ft 15 kts 188°
2026-05-04 21:39 49.19791 -123.19035 36 ft 14 kts 102°
2026-05-04 21:39 49.19772 -123.18895 36 ft 13 kts 100°
2026-05-04 21:39 49.19758 -123.18770 36 ft 11 kts 100°
2026-05-04 21:39 49.19727 -123.18674 36 ft 9 kts 153°
2026-05-04 21:40 49.19668 -123.18684 36 ft 8 kts 191°
2026-05-04 21:40 49.19618 -123.18698 34 ft 7 kts 190°
2026-05-04 21:40 49.19580 -123.18695 36 ft 5 kts 140°
2026-05-04 21:40 49.19574 -123.18637 36 ft 5 kts 99°
2026-05-04 21:41 49.19571 -123.18607 36 ft 0 kts 100°